QPF
0.02 0.02 0.02 0.02 0.02 0.02 0.02 0.01 0.01 0.02 0.03 0.04 0.03 0.03 0.03 0.03 0.03 0.02 0.02 0.04 0.05 0.06 0.06 0.06 0.05 0.05 0.05 0.05 0.04 0.03 0.03 0.02 0.01 0.01 0.01 0.01 0.01 0.00 0.00 0.00 0.00 0.00 0.00
0.01 0.01 0.01 0.01 0.01 0.02 0.02 0.02 0.01 0.02 0.03 0.05 0.05 0.05 0.03 0.03 0.03 0.03 0.02 0.04 0.07 0.08 0.10 0.10 0.09 0.09 0.09 0.08 0.06 0.04 0.03 0.03 0.02 0.01 0.01 0.01 0.01 0.01 0.00 0.00 0.00 0.00 0.00
0.01 0.01 0.01 0.01 0.01 0.01 0.01 0.01 0.01 0.01 0.02 0.02 0.03 0.03 0.03 0.03 0.04 0.04 0.03 0.03 0.04 0.08 0.11 0.13 0.12 0.12 0.11 0.10 0.08 0.08 0.06 0.05 0.04 0.02 0.01 0.01 0.01 0.01 0.01 0.01 0.00 0.00 0.00
0.00 0.00 0.00 0.00 0.00 0.00 0.01 0.01 0.01 0.01 0.01 0.01 0.01 0.02 0.03 0.04 0.04 0.04 0.03 0.04 0.04 0.04 0.08 0.12 0.12 0.12 0.15 0.16 0.15 0.12 0.09 0.07 0.06 0.04 0.03 0.02 0.02 0.01 0.00 0.01 0.01 0.01 0.00
0.00 0.00 0.00 0.00 0.00 0.00 0.00 0.01 0.00 0.00 0.01 0.01 0.01 0.02 0.02 0.03 0.03 0.03 0.03 0.03 0.03 0.03 0.05 0.08 0.11 0.11 0.14 0.18 0.19 0.17 0.15 0.10 0.07 0.06 0.05 0.04 0.04 0.03 0.02 0.02 0.01 0.01 0.01
0.00 0.00 0.00 0.00 0.00 0.00 0.00 0.00 0.00 0.00 0.00 0.00 0.01 0.01 0.01 0.01 0.02 0.02 0.03 0.03 0.02 0.02 0.02 0.04 0.05 0.06 0.11 0.15 0.16 0.18 0.20 0.17 0.13 0.10 0.09 0.09 0.07 0.05 0.04 0.03 0.02 0.02 0.01
0.00 0.00 0.00 0.00 0.00 0.00 0.00 0.00 0.00 0.00 0.00 0.00 0.00 0.00 0.00 0.01 0.01 0.01 0.01 0.01 0.01 0.01 0.01 0.02 0.03 0.02 0.04 0.06 0.08 0.11 0.15 0.14 0.14 0.12 0.11 0.10 0.09 0.08 0.05 0.04 0.03 0.03 0.02
0.00 0.00 0.00 0.00 0.00 0.00 0.00 0.00 0.00 0.00 0.00 0.00 0.00 0.00 0.00 0.00 0.00 0.00 0.00 0.00 0.01 0.01 0.01 0.01 0.01 0.01 0.02 0.02 0.02 0.06 0.09 0.10 0.13 0.13 0.11 0.08 0.08 0.08 0.06 0.05 0.04 0.03 0.03
0.00 0.00 0.00 0.00 0.00 0.00 0.00 0.00 0.00 0.00 0.00 0.00 0.00 0.00 0.00 0.00 0.00 0.00 0.00 0.00 0.00 0.00 0.00 0.00 0.00 0.00 0.01 0.01 0.01 0.02 0.04 0.05 0.09 0.12 0.11 0.08 0.06 0.05 0.05 0.05 0.05 0.04 0.03
0.00 0.00 0.00 0.00 0.00 0.00 0.00 0.00 0.00 0.00 0.00 0.00 0.00 0.00 0.00 0.00 0.00 0.00 0.00 0.00 0.00 0.00 0.00 0.00 0.00 0.00 0.00 0.00 0.00 0.00 0.01 0.03 0.05 0.07 0.09 0.09 0.07 0.05 0.04 0.05 0.06 0.06 0.05
0.00 0.00 0.00 0.00 0.00 0.00 0.00 0.00 0.00 0.00 0.00 0.00 0.00 0.00 0.00 0.00 0.00 0.00 0.00 0.00 0.00 0.00 0.00 0.00 0.00 0.00 0.00 0.00 0.00 0.00 0.01 0.01 0.02 0.03 0.04 0.05 0.05 0.06 0.05 0.06 0.07 0.07 0.07
0.00 0.00 0.00 0.00 0.00 0.00 0.00 0.00 0.00 0.00 0.00 0.00 0.00 0.00 0.00 0.00 0.00 0.00 0.00 0.00 0.00 0.00 0.00 0.00 0.00 0.00 0.00 0.00 0.00 0.00 0.00 0.00 0.01 0.01 0.01 0.01 0.02 0.03 0.04 0.05 0.06 0.07 0.08
0.00 0.00 0.00 0.00 0.00 0.00 0.00 0.00 0.00 0.00 0.00 0.00 0.00 0.00 0.00 0.00 0.00 0.00 0.00 0.00 0.00 0.00 0.00 0.00 0.00 0.00 0.00 0.00 0.00 0.00 0.00 0.00 0.00 0.00 0.00 0.00 0.01 0.01 0.01 0.03 0.04 0.05 0.06
0.00 0.00 0.00 0.00 0.00 0.00 0.00 0.00 0.00 0.00 0.00 0.00 0.00 0.00 0.00 0.00 0.00 0.00 0.00 0.00 0.00 0.00 0.00 0.00 0.00 0.00 0.00 0.00 0.00 0.00 0.00 0.00 0.00 0.00 0.00 0.00 0.00 0.00 0.00 0.00 0.01 0.01 0.01
0.00 0.00 0.00 0.00 0.00 0.00 0.00 0.00 0.00 0.00 0.00 0.00 0.00 0.00 0.00 0.00 0.00 0.00 0.00 0.00 0.00 0.00 0.00 0.00 0.00 0.00 0.00 0.00 0.00 0.00 0.00 0.00 0.00 0.00 0.00 0.00 0.00 0.00 0.00 0.00 0.00 0.00 0.01
0.00 0.00 0.00 0.00 0.00 0.00 0.00 0.00 0.00 0.00 0.00 0.00 0.00 0.00 0.00 0.00 0.00 0.00 0.00 0.00 0.00 0.00 0.00 0.00 0.00 0.00 0.00 0.00 0.00 0.00 0.00 0.00 0.00 0.00 0.00 0.00 0.00 0.00 0.00 0.00 0.00 0.00 0.00
0.00 0.00 0.00 0.00 0.00 0.00 0.00 0.00 0.00 0.00 0.00 0.00 0.00 0.00 0.00 0.00 0.00 0.00 0.00 0.00 0.00 0.00 0.00 0.00 0.00 0.00 0.00 0.00 0.00 0.00 0.00 0.00 0.00 0.00 0.00 0.00 0.00 0.00 0.00 0.00 0.00 0.00 0.00
0.01 0.01 0.00 0.00 0.00 0.00 0.00 0.00 0.00 0.00 0.00 0.00 0.00 0.00 0.00 0.00 0.00 0.00 0.00 0.00 0.00 0.00 0.00 0.00 0.00 0.00 0.00 0.00 0.00 0.00 0.00 0.00 0.00 0.00 0.00 0.00 0.00 0.00 0.00 0.00 0.00 0.00 0.00
0.01 0.01 0.01 0.01 0.00 0.00 0.00 0.00 0.00 0.00 0.00 0.00 0.00 0.00 0.00 0.00 0.00 0.00 0.00 0.00 0.00 0.00 0.00 0.00 0.00 0.00 0.00 0.00 0.00 0.00 0.00 0.00 0.00 0.00 0.00 0.00 0.00 0.00 0.00 0.00 0.00 0.00 0.00
0.02 0.02 0.01 0.01 0.01 0.01 0.01 0.01 0.01 0.01 0.00 0.00 0.00 0.00 0.00 0.00 0.00 0.00 0.00 0.00 0.00 0.00 0.00 0.00 0.00 0.00 0.00 0.00 0.00 0.00 0.00 0.00 0.00 0.00 0.00 0.00 0.00 0.00 0.00 0.00 0.00 0.00 0.00
0.08 0.07 0.05 0.05 0.04 0.04 0.03 0.03 0.03 0.02 0.02 0.02 0.01 0.01 0.01 0.01 0.01 0.01 0.01 0.01 0.01 0.01 0.00 0.00 0.00 0.00 0.00 0.00 0.00 0.00 0.00 0.00 0.00 0.00 0.00 0.00 0.00 0.00 0.00 0.00 0.00 0.00 0.00
0.15 0.17 0.16 0.13 0.12 0.10 0.08 0.08 0.07 0.05 0.04 0.04 0.03 0.03 0.02 0.02 0.02 0.02 0.02 0.02 0.02 0.02 0.02 0.02 0.01 0.01 0.00 0.00 0.00 0.00 0.00 0.00 0.00 0.00 0.00 0.00 0.00 0.00 0.00 0.00 0.00 0.00 0.00
0.15 0.16 0.15 0.13 0.12 0.12 0.12 0.10 0.09 0.07 0.06 0.05 0.04 0.04 0.03 0.03 0.03 0.02 0.02 0.02 0.03 0.03 0.03 0.02 0.01 0.01 0.01 0.01 0.01 0.01 0.01 0.00 0.00 0.00 0.00 0.00 0.00 0.00 0.00 0.00 0.00 0.00 0.00
0.07 0.07 0.07 0.07 0.07 0.07 0.08 0.07 0.06 0.06 0.05 0.04 0.04 0.04 0.03 0.03 0.02 0.02 0.02 0.02 0.02 0.02 0.02 0.02 0.01 0.01 0.01 0.01 0.01 0.01 0.01 0.01 0.00 0.00 0.00 0.00 0.00 0.00 0.00 0.00 0.00 0.00 0.00
0.07 0.06 0.05 0.06 0.06 0.07 0.07 0.07 0.07 0.06 0.06 0.05 0.04 0.04 0.03 0.03 0.02 0.02 0.02 0.01 0.01 0.01 0.02 0.02 0.01 0.01 0.01 0.01 0.01 0.01 0.01 0.01 0.00 0.00 0.00 0.00 0.00 0.00 0.00 0.00 0.00 0.00 0.00
0.09 0.08 0.08 0.07 0.05 0.05 0.05 0.05 0.05 0.05 0.05 0.05 0.05 0.05 0.05 0.04 0.03 0.02 0.01 0.01 0.01 0.01 0.01 0.01 0.01 0.01 0.01 0.01 0.01 0.01 0.01 0.01 0.01 0.00 0.00 0.00 0.00 0.00 0.00 0.00 0.00 0.00 0.00
MSLP
1016.43 1016.59 1016.70 1016.80 1016.90 1017.02 1017.16 1017.32 1017.48 1017.62 1017.74 1017.83 1017.89 1017.95 1018.02 1018.11 1018.25 1018.42 1018.63 1018.87 1019.11 1019.35 1019.59 1019.82 1020.05 1020.29 1020.55 1020.81 1021.09 1021.36 1021.63 1021.88 1022.11 1022.31 1022.50 1022.67 1022.83 1022.98 1023.14 1023.29 1023.43 1023.56 1023.69
1016.37 1016.53 1016.66 1016.79 1016.93 1017.10 1017.29 1017.50 1017.71 1017.90 1018.06 1018.19 1018.27 1018.34 1018.39 1018.46 1018.54 1018.65 1018.79 1018.96 1019.16 1019.37 1019.59 1019.83 1020.07 1020.32 1020.58 1020.85 1021.11 1021.38 1021.63 1021.87 1022.10 1022.31 1022.51 1022.71 1022.89 1023.07 1023.24 1023.39 1023.54 1023.67 1023.79
1016.37 1016.55 1016.71 1016.89 1017.09 1017.31 1017.55 1017.80 1018.05 1018.28 1018.48 1018.64 1018.75 1018.82 1018.87 1018.90 1018.92 1018.96 1019.03 1019.11 1019.23 1019.39 1019.57 1019.78 1020.01 1020.26 1020.52 1020.78 1021.04 1021.30 1021.54 1021.77 1022.00 1022.22 1022.44 1022.65 1022.86 1023.06 1023.25 1023.43 1023.58 1023.72 1023.85
1016.45 1016.65 1016.87 1017.10 1017.35 1017.62 1017.91 1018.19 1018.47 1018.72 1018.94 1019.12 1019.25 1019.33 1019.37 1019.37 1019.35 1019.32 1019.30 1019.30 1019.33 1019.40 1019.52 1019.68 1019.88 1020.11 1020.36 1020.61 1020.87 1021.11 1021.35 1021.58 1021.80 1022.03 1022.26 1022.49 1022.72 1022.95 1023.16 1023.36 1023.54 1023.70 1023.84
1016.60 1016.83 1017.10 1017.39 1017.69 1018.00 1018.31 1018.61 1018.89 1019.15 1019.37 1019.55 1019.69 1019.78 1019.82 1019.81 1019.76 1019.67 1019.58 1019.49 1019.43 1019.41 1019.45 1019.55 1019.70 1019.90 1020.13 1020.37 1020.62 1020.85 1021.08 1021.31 1021.53 1021.75 1021.99 1022.23 1022.48 1022.73 1022.96 1023.19 1023.39 1023.57 1023.74
1016.79 1017.06 1017.36 1017.70 1018.04 1018.38 1018.70 1018.99 1019.25 1019.48 1019.69 1019.87 1020.02 1020.12 1020.17 1020.16 1020.10 1019.98 1019.83 1019.67 1019.53 1019.43 1019.39 1019.42 1019.52 1019.68 1019.88 1020.10 1020.33 1020.56 1020.78 1020.99 1021.20 1021.42 1021.66 1021.90 1022.16 1022.41 1022.66 1022.90 1023.13 1023.34 1023.53
1016.99 1017.28 1017.63 1018.00 1018.37 1018.71 1019.02 1019.28 1019.51 1019.71 1019.89 1020.05 1020.21 1020.33 1020.40 1020.42 1020.36 1020.24 1020.07 1019.86 1019.66 1019.49 1019.38 1019.35 1019.39 1019.50 1019.67 1019.86 1020.07 1020.28 1020.48 1020.68 1020.88 1021.08 1021.30 1021.54 1021.78 1022.04 1022.29 1022.54 1022.77 1023.00 1023.21
1017.18 1017.49 1017.86 1018.26 1018.64 1018.98 1019.26 1019.48 1019.66 1019.81 1019.96 1020.11 1020.27 1020.41 1020.52 1020.58 1020.56 1020.46 1020.29 1020.07 1019.84 1019.63 1019.47 1019.37 1019.36 1019.43 1019.55 1019.71 1019.89 1020.07 1020.25 1020.42 1020.59 1020.77 1020.97 1021.18 1021.41 1021.64 1021.89 1022.12 1022.35 1022.58 1022.80
1017.35 1017.67 1018.06 1018.47 1018.86 1019.19 1019.44 1019.62 1019.75 1019.86 1019.97 1020.11 1020.26 1020.43 1020.59 1020.69 1020.73 1020.67 1020.53 1020.33 1020.09 1019.86 1019.66 1019.53 1019.47 1019.49 1019.57 1019.68 1019.82 1019.97 1020.11 1020.24 1020.38 1020.53 1020.69 1020.87 1021.07 1021.28 1021.49 1021.71 1021.92 1022.12 1022.33
1017.50 1017.84 1018.25 1018.67 1019.05 1019.37 1019.59 1019.74 1019.82 1019.89 1019.97 1020.09 1020.25 1020.45 1020.64 1020.80 1020.90 1020.90 1020.80 1020.63 1020.41 1020.18 1019.97 1019.81 1019.71 1019.68 1019.71 1019.78 1019.87 1019.96 1020.06 1020.15 1020.25 1020.36 1020.49 1020.63 1020.80 1020.97 1021.15 1021.33 1021.50 1021.67 1021.84
1017.64 1018.00 1018.42 1018.85 1019.24 1019.54 1019.75 1019.87 1019.92 1019.96 1020.02 1020.12 1020.29 1020.50 1020.72 1020.92 1021.07 1021.13 1021.09 1020.96 1020.78 1020.56 1020.35 1020.17 1020.04 1019.97 1019.95 1019.96 1019.99 1020.03 1020.07 1020.12 1020.18 1020.25 1020.35 1020.46 1020.59 1020.74 1020.88 1021.02 1021.15 1021.27 1021.39
1017.77 1018.15 1018.59 1019.03 1019.42 1019.72 1019.92 1020.02 1020.06 1020.08 1020.11 1020.21 1020.36 1020.58 1020.82 1021.05 1021.23 1021.34 1021.34 1021.26 1021.11 1020.92 1020.73 1020.54 1020.40 1020.29 1020.22 1020.17 1020.15 1020.12 1020.11 1020.11 1020.13 1020.17 1020.24 1020.33 1020.45 1020.57 1020.68 1020.78 1020.87 1020.94 1021.01
1017.86 1018.26 1018.71 1019.16 1019.55 1019.86 1020.06 1020.16 1020.20 1020.21 1020.23 1020.31 1020.46 1020.66 1020.90 1021.14 1021.34 1021.47 1021.51 1021.47 1021.36 1021.20 1021.03 1020.85 1020.69 1020.56 1020.45 1020.35 1020.27 1020.19 1020.13 1020.08 1020.06 1020.08 1020.13 1020.21 1020.32 1020.43 1020.53 1020.60 1020.65 1020.68 1020.70
1017.87 1018.29 1018.74 1019.19 1019.59 1019.90 1020.11 1020.23 1020.27 1020.29 1020.31 1020.38 1020.51 1020.69 1020.91 1021.14 1021.33 1021.47 1021.54 1021.53 1021.45 1021.33 1021.18 1021.02 1020.86 1020.71 1020.57 1020.44 1020.31 1020.18 1020.07 1019.99 1019.95 1019.94 1019.99 1020.07 1020.17 1020.28 1020.37 1020.44 1020.47 1020.47 1020.45
1017.77 1018.18 1018.62 1019.07 1019.47 1019.79 1020.02 1020.16 1020.23 1020.26 1020.29 1020.35 1020.46 1020.62 1020.81 1021.01 1021.18 1021.31 1021.38 1021.39 1021.34 1021.25 1021.14 1021.00 1020.86 1020.71 1020.56 1020.40 1020.24 1020.08 1019.93 1019.82 1019.75 1019.73 1019.77 1019.85 1019.95 1020.07 1020.17 1020.23 1020.26 1020.25 1020.20
1017.52 1017.90 1018.33 1018.76 1019.16 1019.49 1019.74 1019.91 1020.01 1020.07 1020.12 1020.18 1020.28 1020.42 1020.57 1020.73 1020.88 1020.99 1021.06 1021.07 1021.05 1020.99 1020.91 1020.80 1020.69 1020.55 1020.40 1020.24 1020.06 1019.88 1019.71 1019.57 1019.48 1019.44 1019.46 1019.53 1019.64 1019.75 1019.86 1019.93 1019.96 1019.95 1019.91
1017.11 1017.46 1017.85 1018.26 1018.65 1018.99 1019.27 1019.47 1019.61 1019.71 1019.79 1019.88 1019.98 1020.09 1020.22 1020.35 1020.46 1020.55 1020.60 1020.62 1020.61 1020.58 1020.53 1020.46 1020.37 1020.26 1020.13 1019.97 1019.79 1019.60 1019.41 1019.25 1019.13 1019.07 1019.07 1019.11 1019.20 1019.30 1019.40 1019.47 1019.51 1019.51 1019.48
1016.59 1016.90 1017.25 1017.63 1018.01 1018.36 1018.67 1018.91 1019.10 1019.25 1019.38 1019.49 1019.60 1019.72 1019.83 1019.93 1020.02 1020.08 1020.11 1020.13 1020.12 1020.10 1020.08 1020.04 1019.98 1019.90 1019.79 1019.65 1019.48 1019.28 1019.08 1018.90 1018.75 1018.64 1018.59 1018.59 1018.64 1018.70 1018.77 1018.83 1018.87 1018.88 1018.87
1016.05 1016.31 1016.63 1016.99 1017.36 1017.72 1018.04 1018.33 1018.57 1018.78 1018.95 1019.11 1019.24 1019.37 1019.48 1019.56 1019.63 1019.67 1019.68 1019.68 1019.67 1019.65 1019.64 1019.61 1019.58 1019.52 1019.44 1019.31 1019.15 1018.96 1018.75 1018.54 1018.34 1018.19 1018.07 1018.00 1017.97 1017.98 1018.00 1018.02 1018.04 1018.06 1018.06
1015.59 1015.81 1016.10 1016.44 1016.80 1017.17 1017.52 1017.84 1018.13 1018.39 1018.61 1018.81 1018.98 1019.12 1019.24 1019.32 1019.37 1019.39 1019.38 1019.36 1019.33 1019.30 1019.27 1019.25 1019.22 1019.18 1019.11 1019.00 1018.85 1018.66 1018.43 1018.19 1017.95 1017.72 1017.53 1017.37 1017.25 1017.17 1017.12 1017.09 1017.07 1017.07 1017.08
1015.30 1015.51 1015.78 1016.10 1016.46 1016.83 1017.19 1017.54 1017.87 1018.16 1018.43 1018.67 1018.87 1019.04 1019.17 1019.25 1019.29 1019.29 1019.26 1019.21 1019.15 1019.08 1019.03 1018.99 1018.95 1018.90 1018.83 1018.72 1018.57 1018.38 1018.14 1017.87 1017.58 1017.29 1017.01 1016.75 1016.53 1016.35 1016.20 1016.09 1016.03 1015.99 1016.00
1015.26 1015.47 1015.74 1016.05 1016.41 1016.77 1017.14 1017.50 1017.84 1018.15 1018.44 1018.71 1018.94 1019.13 1019.27 1019.36 1019.39 1019.38 1019.32 1019.23 1019.12 1019.01 1018.91 1018.83 1018.75 1018.68 1018.59 1018.48 1018.33 1018.13 1017.88 1017.58 1017.25 1016.89 1016.53 1016.19 1015.86 1015.57 1015.33 1015.14 1015.00 1014.92 1014.90
1015.50 1015.73 1016.00 1016.32 1016.67 1017.02 1017.37 1017.71 1018.04 1018.35 1018.64 1018.92 1019.16 1019.36 1019.51 1019.61 1019.63 1019.60 1019.51 1019.38 1019.22 1019.05 1018.89 1018.75 1018.62 1018.51 1018.39 1018.26 1018.09 1017.89 1017.63 1017.31 1016.95 1016.55 1016.12 1015.70 1015.28 1014.90 1014.57 1014.29 1014.08 1013.94 1013.87
1016.00 1016.26 1016.56 1016.88 1017.21 1017.54 1017.85 1018.15 1018.45 1018.72 1018.99 1019.25 1019.48 1019.68 1019.83 1019.92 1019.95 1019.89 1019.77 1019.60 1019.38 1019.15 1018.93 1018.71 1018.52 1018.35 1018.19 1018.03 1017.85 1017.63 1017.37 1017.05 1016.67 1016.24 1015.78 1015.30 1014.83 1014.37 1013.96 1013.61 1013.32 1013.12 1012.98
1016.69 1016.99 1017.31 1017.63 1017.94 1018.23 1018.50 1018.74 1018.98 1019.20 1019.42 1019.64 1019.84 1020.02 1020.16 1020.24 1020.25 1020.18 1020.03 1019.81 1019.54 1019.25 1018.95 1018.67 1018.41 1018.18 1017.98 1017.78 1017.58 1017.36 1017.09 1016.77 1016.39 1015.96 1015.48 1014.98 1014.47 1013.97 1013.51 1013.09 1012.75 1012.47 1012.26
1017.48 1017.82 1018.17 1018.49 1018.77 1019.01 1019.22 1019.39 1019.55 1019.70 1019.86 1020.02 1020.18 1020.33 1020.44 1020.50 1020.48 1020.39 1020.20 1019.95 1019.63 1019.28 1018.92 1018.58 1018.26 1017.97 1017.72 1017.49 1017.27 1017.03 1016.76 1016.45 1016.08 1015.66 1015.19 1014.69 1014.16 1013.65 1013.15 1012.70 1012.30 1011.95 1011.67
Thickness
5731 5730 5729 5727 5727 5726 5726 5725 5724 5723 5723 5722 5721 5721 5720 5719 5718 5717 5716 5716 5715 5715 5714 5713 5713 5712 5711 5711 5710 5709 5709 5708 5707 5707 5707 5706 5706 5705 5705 5705 5704 5703 5702
5729 5728 5727 5726 5725 5724 5724 5723 5722 5722 5721 5721 5720 5719 5718 5718 5717 5716 5715 5714 5714 5714 5712 5712 5711 5710 5710 5709 5709 5708 5707 5706 5705 5705 5705 5704 5704 5704 5703 5703 5702 5702 5701
5728 5727 5726 5725 5724 5723 5722 5721 5721 5720 5719 5719 5718 5718 5717 5716 5715 5714 5714 5714 5713 5712 5711 5710 5709 5709 5708 5708 5707 5706 5705 5704 5704 5703 5703 5702 5702 5702 5702 5701 5701 5700 5699
5727 5725 5724 5723 5722 5722 5721 5720 5719 5718 5717 5716 5716 5716 5715 5715 5714 5713 5712 5712 5712 5711 5710 5709 5708 5708 5707 5706 5706 5705 5704 5703 5702 5702 5701 5701 5700 5700 5700 5699 5699 5699 5698
5725 5724 5723 5722 5721 5720 5719 5719 5717 5716 5714 5713 5713 5713 5713 5713 5713 5713 5712 5711 5711 5710 5710 5709 5708 5707 5707 5705 5704 5704 5703 5702 5702 5701 5700 5699 5699 5699 5698 5698 5697 5697 5697
5722 5722 5721 5720 5719 5719 5717 5716 5715 5714 5713 5712 5713 5711 5710 5711 5712 5711 5711 5711 5710 5710 5709 5709 5708 5708 5707 5705 5704 5704 5703 5702 5701 5700 5700 5699 5698 5698 5697 5697 5696 5696 5695
5720 5720 5719 5718 5718 5717 5716 5715 5714 5712 5711 5711 5709 5707 5708 5710 5710 5710 5710 5710 5710 5710 5709 5709 5708 5708 5707 5706 5706 5705 5704 5703 5702 5701 5700 5699 5698 5697 5696 5695 5695 5694 5694
5719 5718 5718 5717 5716 5715 5714 5714 5713 5710 5709 5709 5708 5704 5701 5703 5707 5709 5709 5709 5710 5709 5709 5709 5708 5708 5707 5707 5706 5706 5705 5704 5702 5701 5700 5699 5698 5697 5696 5695 5694 5694 5693
5717 5717 5716 5716 5715 5715 5714 5713 5713 5711 5708 5707 5708 5705 5700 5697 5701 5705 5707 5708 5709 5709 5709 5709 5709 5708 5707 5707 5706 5706 5705 5704 5703 5702 5700 5700 5699 5697 5696 5695 5695 5694 5694
5714 5715 5715 5714 5714 5713 5713 5712 5712 5711 5710 5707 5706 5706 5705 5704 5701 5700 5704 5707 5708 5708 5709 5709 5708 5708 5707 5707 5706 5705 5705 5704 5703 5702 5701 5700 5699 5698 5697 5696 5695 5694 5694
5711 5712 5712 5712 5712 5712 5711 5711 5711 5711 5710 5708 5707 5705 5703 5702 5702 5701 5699 5702 5705 5707 5707 5708 5707 5707 5706 5706 5705 5705 5704 5703 5702 5701 5700 5699 5698 5697 5697 5696 5695 5694 5694
5708 5709 5710 5710 5710 5710 5710 5709 5709 5709 5709 5708 5707 5706 5704 5703 5701 5700 5698 5698 5699 5703 5705 5706 5707 5706 5706 5705 5704 5704 5703 5702 5701 5700 5699 5698 5697 5697 5696 5696 5695 5694 5694
5706 5707 5709 5709 5709 5708 5708 5707 5707 5707 5707 5706 5706 5705 5704 5703 5702 5700 5698 5696 5696 5698 5701 5704 5705 5705 5704 5704 5703 5702 5701 5700 5699 5698 5697 5696 5695 5695 5694 5694 5693 5693 5692
5708 5708 5708 5707 5707 5707 5706 5705 5705 5704 5704 5704 5704 5703 5702 5702 5701 5700 5698 5695 5693 5693 5695 5699 5701 5702 5702 5701 5701 5699 5698 5698 5696 5695 5694 5694 5693 5692 5692 5691 5691 5690 5690
5707 5707 5707 5706 5706 5705 5704 5703 5702 5702 5701 5701 5701 5700 5699 5699 5698 5698 5697 5696 5692 5689 5690 5693 5696 5698 5698 5698 5698 5697 5696 5695 5694 5693 5692 5691 5691 5690 5689 5689 5688 5688 5687
5707 5706 5705 5705 5704 5703 5702 5701 5700 5699 5698 5698 5697 5697 5696 5696 5695 5695 5694 5692 5691 5689 5686 5690 5691 5693 5694 5694 5694 5693 5693 5692 5691 5690 5690 5689 5688 5688 5687 5687 5686 5685 5685
5706 5705 5704 5703 5702 5701 5700 5698 5697 5696 5695 5695 5694 5693 5693 5692 5691 5690 5689 5688 5686 5685 5684 5686 5686 5688 5688 5689 5690 5689 5689 5688 5688 5688 5687 5687 5686 5685 5684 5684 5683 5683 5683
5705 5704 5703 5702 5701 5700 5698 5696 5695 5694 5692 5691 5691 5689 5689 5688 5687 5686 5685 5683 5682 5681 5680 5680 5682 5683 5683 5684 5684 5684 5684 5685 5684 5685 5685 5684 5684 5683 5682 5682 5681 5680 5680
5703 5702 5701 5700 5699 5698 5696 5694 5693 5691 5690 5689 5687 5685 5684 5683 5682 5681 5680 5679 5678 5677 5675 5674 5676 5677 5677 5678 5678 5678 5679 5679 5680 5681 5681 5681 5681 5680 5680 5679 5679 5678 5677
5700 5699 5698 5697 5696 5694 5693 5691 5689 5687 5686 5684 5683 5681 5679 5677 5676 5675 5674 5673 5672 5670 5669 5668 5669 5670 5670 5670 5669 5669 5672 5673 5674 5675 5676 5676 5676 5676 5677 5676 5676 5675 5674
5697 5695 5693 5691 5690 5689 5688 5687 5685 5683 5680 5678 5676 5674 5672 5671 5670 5668 5667 5665 5663 5661 5660 5660 5661 5662 5662 5661 5660 5661 5662 5665 5667 5668 5669 5671 5670 5671 5671 5671 5671 5670 5670
5692 5690 5688 5687 5685 5684 5683 5681 5679 5676 5673 5671 5668 5666 5663 5661 5660 5659 5658 5656 5654 5652 5651 5650 5650 5651 5653 5652 5651 5650 5650 5652 5657 5662 5658 5662 5662 5663 5665 5664 5665 5665 5665
5686 5683 5681 5679 5676 5674 5674 5672 5670 5666 5663 5660 5658 5655 5652 5650 5648 5646 5645 5644 5642 5641 5639 5638 5638 5639 5639 5639 5638 5639 5639 5640 5644 5649 5646 5653 5655 5655 5658 5658 5659 5659 5659
5676 5673 5671 5668 5666 5663 5663 5661 5658 5654 5650 5647 5644 5641 5638 5635 5634 5633 5632 5631 5629 5627 5626 5625 5625 5625 5625 5625 5624 5625 5626 5629 5634 5635 5634 5639 5647 5649 5651 5651 5652 5652 5652
5665 5661 5658 5656 5653 5650 5649 5647 5645 5641 5636 5632 5629 5627 5625 5622 5620 5618 5617 5616 5614 5614 5613 5612 5611 5611 5611 5611 5611 5611 5613 5614 5621 5626 5624 5625 5634 5637 5642 5644 5644 5643 5644
5652 5649 5645 5642 5639 5636 5634 5633 5630 5626 5622 5617 5613 5611 5609 5607 5605 5604 5602 5600 5600 5600 5599 5599 5598 5598 5597 5598 5597 5596 5597 5598 5603 5608 5613 5611 5616 5616 5626 5634 5633 5632 5632